Probability
8 9 9 10 12 13 13 11 8 7 4 2 4 9 11 8 3 1 1 0 0 0 0 0 0 0 0 0 0 0 0 0 0 0 0 0 0 0
10 10 10 11 11 12 12 11 10 8 5 3 4 7 8 6 3 1 1 1 0 0 0 0 0 0 0 0 0 0 0 0 0 0 0 0 0 0
12 11 11 11 11 11 12 13 12 9 6 4 4 6 7 7 5 4 3 1 0 0 0 0 0 0 0 0 0 0 0 0 0 0 0 0 0 0
12 12 10 10 10 11 12 13 12 8 5 4 4 5 7 8 8 6 4 1 0 0 0 0 0 0 0 0 0 0 0 0 0 0 0 0 0 0
10 10 9 9 10 11 12 12 9 6 4 4 4 4 5 6 7 6 4 2 1 0 0 0 0 0 0 0 0 0 0 0 0 0 0 0 0 0
6 6 7 8 8 9 9 9 6 4 4 3 3 4 4 4 4 4 4 3 2 0 0 0 0 0 0 0 0 0 0 0 0 0 0 0 0 0
3 4 4 5 5 5 5 5 4 3 3 3 3 3 3 3 3 4 3 3 2 1 0 0 1 2 1 0 0 0 0 0 0 0 0 0 0 0
3 3 3 3 2 2 1 2 2 1 1 2 2 2 2 2 2 2 2 2 2 1 0 1 3 3 2 1 0 0 0 0 0 0 0 0 0 0
2 2 3 3 2 2 1 1 1 0 0 1 1 1 1 1 1 1 0 0 1 1 0 1 2 2 2 1 0 0 0 0 0 0 0 0 0 0
3 3 4 4 3 2 2 2 2 1 0 0 0 0 0 1 1 0 0 0 0 0 1 1 1 1 1 0 0 0 0 0 0 0 0 0 0 0
4 4 6 5 3 2 2 3 3 2 0 0 0 0 0 1 1 0 0 0 0 0 1 2 2 1 0 0 0 0 0 0 0 0 0 0 0 0
4 4 5 4 3 2 2 3 3 1 0 0 0 0 0 0 0 0 0 0 0 0 1 2 3 3 1 0 0 0 0 0 0 0 0 0 0 0
4 4 3 3 2 1 1 2 2 1 0 0 1 1 1 0 0 0 1 1 1 1 1 3 4 3 2 0 0 0 0 0 0 0 0 0 0 0
3 3 3 2 1 0 0 1 1 0 0 1 2 3 2 1 1 2 2 2 2 2 3 4 4 5 3 1 0 0 0 0 0 0 0 0 0 0
3 3 2 1 0 0 0 0 0 1 2 2 3 4 4 4 4 5 4 4 3 3 4 5 6 6 5 3 1 1 1 1 0 0 0 0 0 0
2 2 2 1 1 1 1 1 1 2 3 5 5 5 6 6 7 7 6 5 4 3 4 5 6 6 6 4 3 2 2 2 1 1 1 0 0 0
1 2 2 2 2 2 2 3 3 3 4 5 6 7 7 7 8 8 7 5 4 3 3 4 4 5 4 3 3 3 3 3 3 2 2 1 0 0
0 1 1 2 2 1 2 3 4 4 3 4 5 6 6 6 7 7 6 5 4 3 3 3 4 4 3 2 2 2 3 3 3 3 3 1 0 0
0 0 1 2 1 0 1 2 3 4 4 4 4 4 4 5 6 6 7 7 6 4 3 4 5 4 3 3 2 2 2 3 4 3 3 2 1 0
1 1 1 1 0 1 1 2 3 4 4 4 5 4 4 4 5 6 7 8 7 5 3 4 5 4 3 3 3 2 2 2 4 4 4 3 2 1
2 2 1 0 1 2 3 4 5 4 3 3 5 5 4 3 4 6 6 7 7 5 3 2 3 2 1 1 2 2 1 1 2 3 4 3 2 1
1 2 2 2 3 4 5 5 5 4 3 3 4 5 4 4 5 5 5 5 6 5 2 1 2 1 0 0 1 1 1 0 0 1 2 2 1 1
0 2 3 4 6 7 7 6 5 4 3 3 4 4 4 5 6 5 4 4 5 5 4 2 2 2 1 0 0 0 1 0 0 0 0 0 1 0
Wind_Speed
1 1 2 2 1 1 0 0 1 1 1 0 1 1 1 3 4 3 3 5 5 6 7 7 6 5 4 5 5 5 5 4 4 4 4 4 3 3
1 1 1 2 1 1 1 1 1 1 1 1 1 0 2 2 3 2 2 5 5 6 7 7 6 5 5 5 5 5 5 5 4 4 4 4 4 4
2 2 2 2 2 2 1 1 1 0 0 0 0 1 1 1 1 1 2 2 3 5 7 7 7 6 6 6 6 6 5 5 5 5 4 4 4 4
2 2 2 2 2 2 2 2 1 0 1 0 0 0 1 1 2 1 1 0 1 4 6 6 7 7 7 6 6 6 6 5 5 5 4 4 4 4
2 2 2 2 2 2 2 2 1 1 1 0 1 1 1 1 1 0 0 0 1 2 4 5 6 6 7 6 6 6 6 6 6 6 5 4 4 4
2 2 2 2 2 2 1 2 1 2 1 0 0 0 1 1 1 0 0 0 1 1 1 2 4 5 7 7 6 6 7 7 6 6 5 5 5 5
1 1 2 2 2 1 1 1 1 1 1 0 0 1 0 0 0 1 0 0 1 1 0 1 1 2 3 5 6 6 7 7 7 7 6 6 5 5
2 1 0 1 3 3 2 1 0 0 0 0 0 0 1 1 1 1 1 1 1 1 0 1 1 2 2 3 5 7 8 8 8 7 7 6 6 6
2 2 3 2 2 1 0 1 1 2 3 2 2 2 2 1 1 1 2 2 2 2 1 2 1 2 2 3 6 8 8 8 8 8 7 7 7 6
2 1 1 2 3 2 2 1 1 2 3 2 2 2 2 1 1 2 2 2 2 2 2 2 2 2 2 1 5 8 8 8 8 8 8 8 7 6
1 1 1 2 2 3 1 2 2 2 2 2 2 3 4 4 3 1 2 2 3 2 1 1 2 2 2 2 4 8 8 8 8 8 8 8 7 6
1 1 2 1 2 2 1 2 2 3 3 3 2 3 4 4 6 4 4 3 2 2 2 1 2 1 2 2 1 3 4 5 6 7 7 8 7 4
2 0 1 1 1 2 3 3 3 4 3 3 3 3 2 3 3 3 3 3 2 2 2 1 2 2 2 2 2 2 3 3 3 4 6 8 8 6
2 1 0 1 3 4 4 4 5 4 3 3 2 2 1 1 1 1 1 2 3 3 3 2 2 3 2 2 2 2 3 3 3 3 4 5 7 8
2 2 3 4 4 4 5 5 4 2 3 2 2 2 2 1 1 1 1 2 3 4 4 4 4 3 2 3 2 2 2 3 3 3 4 4 4 4
3 4 5 5 5 4 3 3 3 2 3 2 2 2 2 1 1 1 2 2 2 2 2 3 3 3 3 3 3 3 3 3 3 3 3 3 3 4
3 3 3 2 3 2 2 2 2 2 2 2 2 2 2 2 2 2 2 2 2 2 2 2 1 2 3 2 3 4 3 3 3 3 2 2 3 3
3 4 3 3 2 2 2 2 2 2 2 2 2 2 2 2 3 3 2 2 2 2 2 2 1 1 1 2 4 4 3 3 2 2 2 2 3 3
3 4 3 2 2 2 2 2 2 2 2 2 2 2 2 3 3 3 3 2 2 3 2 1 2 2 3 3 3 3 3 2 2 2 2 2 2 2
4 3 3 2 2 2 2 2 2 2 2 2 2 2 3 3 3 3 3 3 3 3 3 2 2 3 3 3 2 3 4 3 2 2 2 1 1 1
3 2 2 2 2 2 2 2 2 2 2 2 2 3 2 3 3 4 3 4 3 3 3 3 3 4 3 1 2 2 2 3 3 2 2 2 2 2
2 2 2 2 2 2 2 2 2 2 2 2 2 2 3 3 4 4 4 3 3 3 3 2 2 2 2 2 2 2 2 1 2 2 3 3 3 3
2 2 2 2 2 2 2 3 3 3 2 2 2 3 3 3 4 3 3 3 3 3 3 2 2 2 2 2 2 2 2 2 2 2 2 4 5 5
Wind_Direction
320 323 306 300 318 340 337 172 201 262 277 260 96 126 130 120 145 166 155 167 176 183 184 187 190 195 198 192 193 195 201 208 212 217 225 228 236 248
278 300 319 324 335 332 314 267 237 236 282 344 355 111 97 111 147 145 150 167 181 182 188 189 194 194 193 190 191 193 196 203 209 215 221 222 232 244
333 355 348 332 339 334 325 314 283 190 142 321 16 47 62 114 119 138 148 165 175 184 186 189 196 197 194 195 194 194 199 204 209 218 218 228 238 246
346 0 353 342 348 340 339 334 344 37 131 163 149 132 71 94 128 157 154 201 175 180 184 191 199 198 196 195 192 194 199 205 212 213 218 229 239 246
1 9 360 348 340 346 353 342 351 356 72 157 227 164 133 106 94 67 317 10 277 165 176 189 198 200 197 193 194 197 199 204 208 207 211 222 233 241
15 25 11 1 342 331 333 342 4 20 30 5 99 61 74 95 99 121 285 254 286 280 171 186 192 200 199 196 196 199 202 203 204 204 208 215 222 231
6 27 27 38 50 23 350 22 7 14 26 14 64 36 30 64 338 281 277 283 274 252 140 208 187 197 195 201 202 202 200 200 200 202 208 214 219 227
343 338 346 51 64 70 51 41 0 291 333 12 292 258 260 264 285 279 280 283 291 276 233 263 208 203 215 202 198 199 200 201 201 203 207 211 218 225
342 343 339 26 53 51 26 287 270 255 231 223 226 240 249 253 259 272 271 275 276 256 244 257 234 229 231 215 189 195 200 203 202 203 205 210 217 224
325 336 357 33 9 2 334 319 292 283 260 230 221 234 251 249 235 250 253 260 257 254 224 246 244 243 249 214 197 198 201 204 208 209 208 210 214 222
345 24 47 64 13 349 318 308 307 300 286 268 246 243 248 260 252 245 248 252 261 253 230 242 255 261 250 232 213 202 206 213 213 213 211 210 211 215
270 125 79 62 356 346 292 287 294 304 312 311 286 265 241 234 234 227 229 238 250 252 227 230 244 251 275 254 213 196 212 221 216 214 216 214 207 207
296 287 86 103 264 283 280 272 273 289 285 272 264 251 223 219 217 216 219 221 240 254 228 224 246 249 242 263 255 212 201 203 202 216 221 219 212 204
305 334 17 252 269 272 269 273 278 286 278 273 267 256 241 244 239 223 217 224 236 240 239 231 242 240 244 257 262 234 214 203 201 203 200 208 214 219
309 306 288 272 265 261 254 266 264 260 264 268 272 269 255 247 247 243 257 239 241 249 245 232 227 227 228 243 247 241 243 226 209 203 196 196 204 205
287 282 270 264 264 267 257 249 240 256 272 269 270 273 275 251 244 238 243 240 257 272 252 238 224 217 233 234 235 244 243 233 217 209 202 201 207 204
298 277 264 251 245 247 250 241 229 239 252 269 288 292 283 274 266 260 257 251 248 261 263 251 245 232 223 228 238 232 231 240 224 197 201 216 218 210
282 263 259 256 260 258 259 256 247 245 262 273 277 274 275 278 279 277 270 256 256 262 261 244 220 259 269 267 241 242 232 227 224 204 199 217 230 212
257 261 263 261 260 253 263 272 268 253 248 259 262 262 268 274 278 273 265 258 254 257 250 226 217 228 255 268 263 243 239 233 215 218 206 211 229 211
246 263 271 274 278 277 273 272 276 272 256 253 256 258 267 273 274 274 266 255 254 256 254 232 221 222 231 252 261 263 241 231 218 220 213 196 221 167
260 265 272 278 282 283 279 275 280 276 274 264 254 254 262 268 271 273 274 268 259 254 252 240 227 226 224 228 251 252 247 225 219 214 204 194 213 222
266 271 275 281 288 291 287 277 277 274 274 273 274 274 275 272 272 270 267 265 256 249 252 240 208 215 211 217 243 249 249 226 206 220 239 227 211 214
267 280 281 280 272 273 282 282 281 284 285 288 289 285 282 280 276 272 270 267 265 264 255 236 218 214 219 217 230 239 229 218 207 200 244 238 221 221